Location: Limerick
(52.6650°N, 8.6230°W)
Time: 15:37:26
(UTC+00:00)

ISS - Pass Details

Date: 23 January 2020
Orbit: 415 x 421 km, 51.6° (Epoch: 18 January)

Event Time Altitude Azimuth Distance (km) Brightness Sun altitude
Rises 19:44:36 0° 238° (WSW) 2,359 1.0 -24.1°
Reaches altitude 10° 19:46:45 10° 231° (SW) 1,497 -0.3 -24.4°
Enters shadow 19:48:17 23° 218° (SW) 932 -1.7 -24.7°
